Location: Helensbirgh
(56.0153°N, 4.7348°W)
Time: 13:54:53
(UTC+00:00)

ISS - Visible Passes

Search period start: 22 February 2019 00:00
Search period end: 04 March 2019 00:00
Orbit: 403 x 411 km, 51.6° (Epoch: 22 February)

Date Brightness Start Highest point End Pass type
(mag) Time Alt. Az. Time Alt. Az. Time Alt. Az.
26 Feb -1.1 06:11:19 10° S 06:13:19 15° SSE 06:15:19 10° ESE visible
27 Feb -0.9 05:21:14 10° SSE 05:22:05 11° SE 05:22:58 10° SE visible
28 Feb -1.8 06:03:52 10° SSW 06:06:31 23° SSE 06:09:10 10° ESE visible
01 Mar -1.5 05:13:43 14° S 05:15:12 17° SSE 05:17:27 10° ESE visible
02 Mar -1.1 04:24:17 13° SE 04:24:17 13° SE 04:25:27 10° ESE visible
02 Mar -2.4 05:56:59 11° SW 05:59:44 30° SSE 06:02:41 10° ESE visible
03 Mar -2.2 05:07:29 22° S 05:08:21 25° SSE 05:11:07 10° ESE visible
